RH
43 41 42 38 41 47 53 60 78 84 69 63 64 64 60 55 60 40 36 36 40 37 37 33 31 30 30 29 25 30 30 34 33 27 27 29 30 34 32 24 26 29 28
45 44 43 44 46 48 57 73 79 72 65 62 63 74 70 51 41 40 42 40 35 36 32 31 31 31 32 31 29 30 31 33 38 29 35 29 21 25 19 26 27 26 26
41 44 44 47 54 60 67 74 74 68 64 63 56 57 56 51 37 36 46 43 36 36 31 32 31 33 34 35 35 34 34 32 37 36 21 27 27 33 27 24 27 24 26
38 40 44 49 58 63 77 76 71 65 58 57 54 59 57 52 36 40 38 35 33 32 31 32 31 33 34 34 33 31 35 33 35 35 28 30 30 31 29 28 26 28 24
42 44 47 48 55 74 81 77 70 62 55 54 54 69 68 50 35 34 33 33 32 32 32 31 33 32 33 33 31 33 33 35 30 34 35 34 33 34 38 32 30 28 27
47 46 47 51 68 83 85 79 70 62 55 53 56 54 58 35 35 35 34 30 31 32 31 31 32 32 32 33 34 35 35 34 33 32 33 31 30 28 33 33 33 36 31
42 53 63 71 80 87 86 76 69 64 55 50 46 40 35 29 30 30 32 31 29 30 30 28 27 29 34 34 34 34 35 34 34 36 32 33 34 34 36 40 41 42 37
51 58 63 72 77 86 82 71 68 63 53 48 42 34 32 32 32 31 30 27 27 27 27 27 27 27 29 30 31 35 35 36 36 39 38 36 36 37 37 43 48 50 37
54 61 68 73 78 84 78 71 67 60 53 48 42 37 38 38 36 30 28 28 27 25 26 26 28 29 30 31 32 31 32 34 37 39 41 40 38 39 42 45 47 51 55
52 68 73 77 81 80 75 68 61 58 50 44 39 37 34 31 29 28 28 27 25 26 27 28 28 30 30 31 33 33 35 35 37 37 40 41 41 42 44 47 49 50 56
54 64 76 81 83 77 71 63 57 51 43 38 34 31 30 28 25 25 25 25 25 26 27 28 29 30 31 32 31 32 35 38 41 42 43 45 45 45 45 48 51 53 53
70 80 84 77 75 70 62 56 49 42 38 32 29 28 27 26 24 24 25 24 26 28 29 29 30 31 34 32 31 33 38 42 45 46 48 48 43 51 49 50 52 54 54
84 80 76 74 70 64 54 46 39 34 31 28 27 27 27 26 25 26 26 27 29 30 30 32 33 33 35 33 31 36 42 46 48 49 50 51 50 51 50 52 56 57 55
82 77 73 66 60 53 45 37 33 30 29 28 28 29 28 28 28 29 29 30 30 31 34 34 34 36 34 32 35 44 48 50 50 52 52 50 52 53 58 59 61 61 61
83 75 70 61 52 45 38 33 31 30 28 29 31 33 32 32 32 33 33 32 33 35 36 35 37 36 33 27 43 49 51 54 54 53 51 50 56 64 60 54 58 57 63
82 74 66 56 49 42 36 33 32 31 30 33 36 36 35 34 36 35 33 36 38 37 36 37 40 41 30 48 52 51 49 53 54 54 50 51 61 61 65 65 64 64 68
78 70 61 54 47 38 35 36 31 32 34 36 36 37 35 34 36 32 33 37 37 38 38 37 37 37 38 52 54 54 50 53 53 53 53 52 50 61 60 67 70 73 87
76 68 58 50 41 34 32 33 33 35 37 38 37 36 35 34 32 30 33 35 37 38 38 38 38 40 40 57 55 57 52 54 53 54 54 56 58 60 64 58 94 82 54
71 64 56 46 39 35 33 34 37 38 38 37 36 33 31 31 29 33 35 37 39 39 39 38 42 44 48 59 58 56 52 52 54 53 54 58 54 62 62 75 78 56 54
72 64 52 43 38 35 33 35 38 36 37 36 34 32 31 29 32 36 39 42 41 38 38 40 45 54 48 61 60 55 51 55 55 53 50 60 60 63 71 59 59 69 55
66 54 47 42 37 34 33 37 36 38 38 34 33 31 31 33 38 41 41 42 42 42 44 48 50 50 53 54 61 60 52 55 57 55 55 54 64 68 63 63 56 62 69
60 50 45 41 36 34 33 36 40 37 34 33 33 34 38 37 42 46 45 44 47 47 50 55 52 50 51 59 60 61 60 58 55 59 55 56 66 65 64 63 70 69 67
51 45 43 41 38 35 34 39 39 34 33 32 39 42 42 42 43 44 48 46 51 52 56 57 58 54 50 52 63 64 63 60 59 56 62 67 67 64 63 68 70 70 60
48 43 41 41 41 37 37 36 35 32 32 39 44 44 45 47 46 44 47 51 55 57 57 58 57 58 55 55 53 54 54 61 59 64 65 64 62 66 66 61 58 56 59
46 43 42 42 42 37 36 34 33 32 38 44 49 51 50 49 49 49 51 55 56 58 55 56 55 57 58 53 58 59 56 58 60 61 59 54 58 62 59 60 60 61 61
45 44 42 41 39 36 37 36 36 36 40 45 48 51 51 52 52 54 52 54 52 54 53 53 53 50 57 60 63 63 63 64 67 62 60 66 68 69 66 70 70 69 76
Wind_Speed
14 12 10 8 8 7 8 8 11 13 12 10 11 7 7 7 6 6 8 10 7 9 7 7 8 7 7 6 4 3 5 6 7 4 4 2 2 2 2 3 1 1 4
13 11 10 8 9 9 10 10 11 14 11 9 7 6 7 6 6 6 8 7 9 10 7 9 8 8 6 6 6 4 2 3 6 4 1 4 2 2 6 2 2 5 5
18 16 12 12 9 11 12 11 13 14 11 13 12 10 9 7 5 6 6 5 7 8 10 10 9 7 6 5 5 4 4 3 4 7 4 2 2 5 3 5 4 6 7
19 18 15 12 13 13 9 10 12 13 13 15 14 19 11 11 5 6 6 7 10 10 9 10 9 8 6 6 5 4 4 2 4 1 4 2 2 3 6 2 5 2 11
17 19 16 15 12 11 12 11 13 13 14 14 15 12 12 8 8 9 11 9 9 9 9 9 9 8 5 6 6 5 4 3 2 1 1 1 2 3 5 10 7 10 9
14 17 13 11 10 10 11 11 14 12 13 13 14 15 16 16 12 10 9 8 7 7 8 9 8 7 6 6 5 5 4 3 3 1 1 1 2 4 4 7 12 13 9
12 11 10 11 11 14 13 12 14 13 13 14 14 14 14 17 18 15 11 12 9 6 7 8 7 5 6 5 4 4 3 2 2 1 2 2 4 4 5 8 11 10 11
9 12 14 13 14 16 16 16 16 15 14 13 13 12 12 9 9 10 10 8 8 8 9 8 7 7 6 5 4 2 2 1 1 3 3 4 4 4 5 7 10 14 9
10 12 12 14 14 15 17 17 17 15 14 14 11 12 11 13 11 13 11 9 10 9 9 8 7 6 5 4 3 2 2 2 2 3 4 4 5 5 6 6 7 9 14
10 10 11 13 13 13 13 15 16 16 14 13 11 11 13 13 13 12 12 11 10 11 9 8 7 6 5 4 2 2 3 3 3 3 5 5 5 6 6 7 7 8 12
11 11 11 10 12 12 13 14 15 16 14 13 13 15 14 14 12 12 11 11 11 10 9 7 6 5 4 3 2 3 2 4 5 5 5 7 7 6 7 7 8 9 10
6 5 10 12 14 14 13 14 14 15 13 13 14 15 14 14 13 12 11 10 10 9 8 7 6 4 3 3 3 3 4 5 6 6 6 8 7 10 10 8 11 10 12
4 6 9 11 13 14 14 14 14 14 14 14 15 14 14 14 13 12 11 10 10 9 7 6 5 4 3 2 2 4 5 5 5 5 6 9 10 10 9 10 11 11 11
1 5 9 11 12 12 14 14 14 14 14 14 14 13 13 13 12 11 10 10 9 8 7 5 4 3 2 3 4 4 5 4 4 5 7 9 9 11 12 11 12 11 12
5 6 8 11 13 14 13 13 14 15 13 14 13 12 12 12 12 11 10 9 8 7 6 5 4 3 3 3 6 5 5 5 6 7 9 9 12 18 17 11 13 15 13
8 8 10 13 14 14 14 14 14 14 14 13 13 12 12 12 11 10 9 8 7 6 5 4 3 4 3 8 10 10 7 6 7 10 11 10 14 14 19 21 24 20 15
11 12 13 12 12 13 15 15 14 13 13 13 12 12 12 12 10 9 9 7 6 5 4 4 3 4 5 9 11 13 7 6 9 11 11 11 9 15 14 19 23 22 18
12 12 11 11 11 13 13 14 13 13 13 12 12 11 11 11 9 8 8 6 4 4 3 3 3 4 4 10 12 14 8 8 10 11 12 12 13 13 16 16 12 12 15
11 12 12 13 13 14 14 15 13 12 12 11 12 11 11 11 9 8 7 5 4 3 2 1 3 5 5 10 13 13 8 9 11 11 12 11 13 20 26 15 15 17 15
12 15 14 14 14 12 14 15 13 12 11 11 11 10 10 10 8 7 6 3 3 1 1 3 3 6 6 10 14 13 8 9 10 11 11 14 17 25 25 17 15 14 17
14 14 13 13 13 13 15 14 12 11 10 11 11 10 8 9 8 6 4 3 2 3 3 4 5 5 6 8 14 15 9 9 9 10 10 10 22 25 26 25 13 15 16
12 12 14 12 11 12 15 14 12 10 11 11 10 10 8 6 6 6 4 4 3 3 4 5 6 4 6 9 12 15 16 17 11 11 10 12 23 25 24 18 20 22 19
10 10 13 14 10 10 13 16 10 12 11 11 10 9 8 6 5 5 4 2 3 3 4 5 6 7 7 7 14 16 17 18 12 9 16 23 22 22 15 18 21 19 10
11 11 14 14 13 12 12 14 12 11 11 11 9 7 7 6 4 3 2 2 2 2 4 6 7 7 8 7 8 7 9 12 11 14 9 15 17 16 15 13 11 9 10
10 10 12 13 13 13 12 10 10 11 10 9 7 6 5 4 3 2 1 1 2 2 6 5 6 8 8 8 15 14 10 9 13 16 9 9 9 10 10 10 11 10 10
11 12 13 15 12 12 11 9 8 9 10 8 5 4 3 2 2 2 2 5 6 9 9 11 10 8 13 17 18 20 20 21 21 10 9 9 9 10 10 11 11 11 12
Wind_Direction
252 259 252 243 251 230 207 196 176 173 156 150 142 136 141 130 112 104 104 105 104 118 125 116 104 93 84 83 69 97 49 31 358 344 352 24 52 210 218 334 10 85 7
247 250 246 233 218 225 206 179 179 171 167 160 137 114 134 117 107 106 99 111 128 108 130 113 103 102 107 88 65 55 104 51 20 22 344 3 344 15 323 318 12 1 342
241 240 236 219 210 206 203 182 171 167 156 135 116 102 101 103 101 107 106 105 115 105 111 108 108 106 99 92 83 68 68 69 59 43 24 340 329 329 321 318 325 340 339
237 236 227 212 203 208 181 175 166 160 150 152 144 151 152 153 151 133 122 127 111 114 112 109 109 105 106 110 100 81 74 86 52 93 49 54 295 319 307 266 278 289 317
231 229 225 210 205 176 177 166 160 162 158 158 156 149 142 126 121 119 118 116 112 111 112 110 110 112 111 107 103 98 85 72 94 53 0 4 292 260 260 301 302 307 306
234 234 227 213 187 155 157 162 162 161 159 155 158 151 143 137 135 137 133 134 123 118 110 107 109 112 114 109 105 104 89 93 93 88 204 281 292 285 278 287 304 301 308
239 227 195 185 175 167 164 159 160 160 159 152 150 146 145 148 149 146 144 145 134 128 122 119 119 113 113 107 106 96 80 78 37 319 288 261 260 260 280 294 301 301 306
234 215 199 189 186 171 163 160 159 153 157 150 138 131 133 137 138 140 141 138 132 128 127 121 119 118 110 102 95 76 48 63 331 298 259 292 272 254 275 283 306 309 296
225 221 201 184 176 173 169 161 151 147 149 140 126 122 125 136 140 133 129 129 125 124 125 125 120 110 104 94 72 41 357 337 343 313 292 282 282 270 278 267 278 296 306
238 205 194 179 171 167 154 145 143 141 135 129 130 127 130 129 125 127 128 127 121 122 125 120 113 108 99 82 48 3 354 341 333 305 294 296 291 288 283 273 273 270 284
271 210 186 161 146 139 142 136 132 130 128 125 126 126 125 123 122 123 125 123 121 123 119 118 114 107 94 66 17 359 335 321 307 304 307 307 309 299 295 285 276 275 277
298 169 147 141 138 133 133 133 129 125 126 127 125 123 121 121 121 123 123 124 119 115 118 117 111 102 85 41 10 335 315 305 315 324 321 316 315 303 297 290 286 283 281
37 103 127 139 140 137 132 131 127 121 121 125 123 122 123 124 125 125 124 120 119 115 112 111 102 88 52 22 315 288 301 307 312 312 311 311 309 302 299 293 289 284 282
259 140 131 131 128 130 128 127 119 120 123 123 124 125 127 126 126 123 120 120 119 116 110 98 94 73 13 318 303 298 300 298 302 300 306 303 299 302 299 291 285 288 290
200 168 141 133 127 125 123 123 121 122 127 123 124 125 123 120 119 118 119 118 111 105 103 104 80 35 336 326 320 307 312 308 299 301 300 298 299 304 302 300 304 299 295
193 160 144 141 136 135 132 127 125 123 126 123 123 125 122 121 120 121 120 114 107 104 101 87 57 10 332 323 327 329 319 311 301 305 305 300 301 295 295 307 301 302 298
171 160 155 148 141 138 136 132 128 124 121 121 127 127 124 121 121 122 119 114 107 109 94 59 23 346 328 326 329 325 320 311 306 305 305 305 295 298 296 292 291 296 298
152 145 139 133 129 127 120 120 122 120 119 123 127 126 122 121 122 121 117 114 109 98 74 35 347 337 328 329 327 323 321 307 303 299 301 296 293 296 297 306 307 303 303
143 137 133 130 130 126 127 121 116 117 123 130 129 127 125 124 126 120 118 113 105 85 52 321 347 335 320 327 327 327 317 309 307 300 292 289 303 310 311 319 310 312 307
127 129 129 125 123 130 128 120 122 126 129 130 124 122 124 126 121 122 115 92 82 68 5 354 343 320 323 323 329 327 317 316 310 307 303 305 316 315 320 319 317 312 305
113 115 119 126 131 131 123 120 126 123 119 114 114 113 111 114 118 110 92 103 82 33 2 341 339 321 320 320 325 329 325 316 310 316 318 319 315 319 325 321 321 300 307
100 108 112 113 121 126 122 119 110 117 114 113 110 110 114 112 107 108 112 84 60 19 1 335 330 327 314 324 329 326 324 320 322 318 318 310 321 324 321 321 310 317 323
96 103 111 107 97 107 118 112 124 122 116 111 111 109 104 102 105 104 99 84 30 11 339 333 327 332 334 325 316 315 317 324 320 320 313 325 322 321 319 313 320 320 317
94 107 110 104 95 92 99 113 122 119 114 110 113 116 113 106 90 88 87 59 360 334 334 334 329 322 321 314 308 306 314 315 323 317 322 319 320 315 312 318 317 316 314
96 102 106 101 96 103 104 110 113 113 108 113 116 108 93 101 105 69 85 348 290 287 330 326 316 318 318 318 324 327 317 327 324 331 324 320 323 321 322 319 317 316 316
103 97 92 97 100 101 101 99 104 118 120 116 112 115 116 98 74 49 355 356 358 344 334 331 328 320 318 324 328 320 332 332 332 328 322 322 319 318 318 316 313 311 312